Location: Nitra
(0.0000°N, 18.0833°E)
Time: 06:07:36
(UTC+01:00)

BREEZE-M DEB (TANK) - Pass Details

Date: 24 January 2021
Orbit: 353 x 16373 km, 49.4° (Epoch: 03 March)

Event Time Altitude Azimuth Distance (km) Brightness Sun altitude
Rises 19:00:52 0° 217° (SW) 16,178 10.7 -14.4°
Reaches altitude 10° 19:21:11 10° 216° (SW) 11,656 9.8 -19.2°
Maximum altitude 19:52:19 89° 131° (SE) 1,851 4.8 -26.5°
Enters shadow 19:55:03 47° 39° (NE) 1,776 4.4 -27.1°
